[[{"header":{"parameterUnit":"m.s-1","parameterCategory":1,"la1":30.2991,"la2":30.254,"lo1":-89.0895,"lo2":-89.0444,"dy":0.0017,"dx":0.0017,"nx":28,"ny":28,"refTime":"2024-02-26T03:00:00:Z","depth":0,"parameterNumber":2,"parameterNumberName":"U-component_of_WINDS"},"data":[0,0,0,0,0,0,0,0,0,0,0,0,0,0,0,0,0,0,0,0,0,0,0,0,0,0,0,0,0,0,0,0,0,0,0,0,0,0,0,0,0,0,0,0,0,0,0,0,0,0,0,0,0,0,0,0,0,0,-1.5808,-1.5807,0,-1.5766,-1.5765,-1.5765,-1.5706,-1.5705,-1.5704,-1.5703,-1.5659,-1.5659,-1.5659,0,0,0,0,0,0,0,0,0,0,0,0,0,-1.5838,-1.5837,-1.5808,-1.5807,-1.5807,-1.5766,-1.5765,-1.5764,-1.5707,-1.5705,-1.5704,-1.5703,-1.566,-1.5659,-1.5659,0,0,0,0,0,0,0,0,0,0,0,0,0,-1.5813,-1.5837,-1.5808,-1.5773,-1.5769,-1.5766,-1.5765,-1.5764,-1.5707,-1.5705,-1.5704,-1.5702,-1.566,-1.5659,-1.5659,-1.5686,0,0,-1.5658,-1.5657,0,0,0,0,0,0,0,0,-1.5815,-1.5812,-1.5778,-1.5775,-1.5771,-1.574,-1.5759,-1.5738,-1.5707,-1.573,-1.5703,-1.5702,-1.5687,-1.5685,-1.568,-1.5684,-1.5682,-1.5658,-1.5657,-1.5657,-1.5657,0,0,0,0,0,0,0,-1.5816,-1.5813,-1.5791,-1.5778,-1.5774,-1.5759,-1.5754,-1.5755,-1.5718,-1.5728,-1.5724,-1.572,-1.5685,-1.568,-1.5678,-1.5681,-1.5658,-1.5657,-1.5657,-1.5657,-1.5705,-1.5707,0,0,0,0,0,0,-1.5823,-1.5815,-1.5792,-1.579,-1.579,-1.576,-1.5754,-1.5751,-1.5717,-1.5711,-1.5721,-1.5717,-1.5682,-1.5679,-1.5677,-1.5705,-1.5657,-1.5657,-1.5657,-1.5704,-1.5705,-1.5707,0,0,0,0,0,0,-1.5824,-1.5822,-1.5794,-1.5801,-1.5797,-1.5761,-1.5758,-1.5751,-1.5746,-1.5712,-1.5705,-1.5723,-1.568,-1.5677,-1.5684,-1.5703,-1.5657,-1.5656,-1.5702,-1.5704,-1.5706,-1.5764,0,0,0,0,0,0,-1.5825,-1.5822,-1.5832,-1.5802,-1.5797,-1.5802,-1.5759,-1.5751,-1.5746,-1.5741,-1.5712,-1.5706,-1.5679,-1.5685,-1.5684,-1.5702,-1.5656,-1.57,-1.5703,-1.5706,-1.576,-1.5768,-1.5774,0,0,0,0,0,-1.5827,-1.585,-1.5833,-1.5831,-1.5808,-1.5804,-1.58,-1.5769,-1.5748,-1.5757,-1.5735,-1.5707,-1.5702,-1.5686,-1.5684,-1.5702,-1.5698,-1.5702,-1.5705,-1.5757,-1.5766,-1.5774,0,0,0,0,0,0,-1.5883,-1.5845,-1.5826,-1.5841,-1.5826,-1.5794,-1.5805,-1.578,-1.5771,-1.5766,-1.5728,-1.5722,-1.5733,-1.5719,-1.5702,-1.5727,-1.5696,-1.5699,-1.5735,-1.5744,-1.5751,-1.5754,-1.5656,0,0,0,0,0,-1.5897,-1.5897,-1.5864,-1.588,-1.5874,-1.5841,-1.5838,-1.5815,-1.5798,-1.5791,-1.5769,-1.5754,-1.5748,-1.5746,-1.5739,-1.5758,-1.5751,-1.577,-1.5777,-1.5783,-1.5786,-1.5794,-1.5802,-1.5718,-1.5718,-1.5718,0,0,-1.5926,-1.5906,-1.5908,-1.5891,-1.5876,-1.5877,-1.5836,-1.5838,-1.5837,-1.5791,-1.5796,-1.578,-1.576,-1.5773,-1.5778,-1.5761,-1.5808,-1.5787,-1.5792,-1.5792,-1.5799,-1.5806,-1.5814,-1.5721,-1.572,-1.572,0,0,-1.5979,-1.5964,-1.5975,-1.5962,-1.5942,-1.592,-1.5923,-1.5895,-1.5882,-1.5887,-1.5852,-1.5852,-1.5843,-1.583,-1.5823,-1.5872,-1.5845,-1.5871,-1.5908,-1.5917,-1.5923,-1.5929,-1.5946,-1.5952,-1.5874,-1.5875,-1.5875,0,-1.6018,-1.6017,-1.5984,-1.5988,-1.5982,-1.5941,-1.5952,-1.5941,-1.5919,-1.5915,-1.5898,-1.5887,-1.587,-1.588,-1.5892,-1.5887,-1.5889,-1.5873,-1.5925,-1.5931,-1.5935,-1.5951,-1.5957,-1.5878,-1.5877,-1.5877,-1.5877,0,-1.6065,-1.6065,-1.6077,-1.6057,-1.6052,-1.6059,-1.6028,-1.6027,-1.6005,-1.5985,-1.5991,-1.597,-1.5958,-1.5959,-1.5938,-1.5965,-1.5956,-1.5932,-1.59,-1.5947,-1.5961,-1.5967,-1.5882,-1.5881,-1.588,-1.5879,0,0,-1.615,-1.6113,-1.6118,-1.6109,-1.6083,-1.6083,-1.6089,-1.6078,-1.6077,-1.6064,-1.6068,-1.6062,-1.6041,-1.6032,-1.6009,-1.6017,-1.6057,-1.5992,-1.5991,-1.6004,-1.6085,-1.6102,-1.6109,-1.604,-1.6041,-1.6041,-1.6086,0,-1.6197,-1.6205,-1.6177,-1.6192,-1.6191,-1.6153,-1.6158,-1.6144,-1.6126,-1.6122,-1.6102,-1.6099,-1.6071,-1.6066,-1.6072,-1.6051,-1.6072,-1.6047,-1.6042,-1.6042,-1.6046,-1.6116,-1.6134,-1.6177,-1.6092,-1.6092,-1.6093,0,-1.6252,-1.6242,-1.6258,-1.6232,-1.6231,-1.6236,-1.6224,-1.6221,-1.6204,-1.619,-1.6181,-1.6155,-1.6159,-1.613,-1.6134,-1.6118,-1.6114,-1.6104,-1.6105,-1.6102,-1.6069,-1.6114,-1.619,-1.6196,-1.6101,-1.6101,-1.61,0,-1.6312,-1.6303,-1.631,-1.6304,-1.6274,-1.6279,-1.6266,-1.6248,-1.6243,-1.6232,-1.6229,-1.6219,-1.6213,-1.6206,-1.6178,-1.6159,-1.6186,-1.6154,-1.6174,-1.6174,-1.6179,-1.6179,-1.6255,-1.618,-1.618,-1.618,-1.618,0,-1.6366,-1.6377,-1.6337,-1.6341,-1.6352,-1.632,-1.6331,-1.6315,-1.6299,-1.63,-1.6267,-1.6268,-1.6232,-1.6229,-1.6207,-1.6214,-1.6212,-1.6201,-1.6194,-1.6203,-1.6204,-1.6198,-1.6194,-1.6181,-1.6181,-1.6181,-1.618,0,-1.6433,-1.6407,-1.6413,-1.6385,-1.6378,-1.6387,-1.6363,-1.6366,-1.6347,-1.6349,-1.6347,-1.6316,-1.6312,-1.6283,-1.6272,-1.6257,-1.6271,-1.626,-1.6277,-1.6273,-1.6294,-1.6292,-1.6367,-1.6375,-1.6297,-1.6297,-1.6298,0,-1.6469,-1.6476,-1.6449,-1.6448,-1.6437,-1.6435,-1.643,-1.6399,-1.6396,-1.6377,-1.6382,-1.6375,-1.6367,-1.6361,-1.6338,-1.6329,-1.6316,-1.6344,-1.6315,-1.6323,-1.6315,-1.6315,-1.6315,-1.6349,-1.635,-1.6351,-1.6352,0,-1.6535,-1.6522,-1.6516,-1.6506,-1.6502,-1.6493,-1.6481,-1.6482,-1.6447,-1.6445,-1.644,-1.6434,-1.6423,-1.6416,-1.6403,-1.6391,-1.6365,-1.6361,-1.6365,-1.6373,-1.6382,-1.6376,-1.6293,-1.6359,-1.6358,-1.6358,-1.6357,-1.6357,-1.6586,-1.6591,-1.6573,-1.6568,-1.6556,-1.6547,-1.6548,-1.653,-1.6525,-1.6514,-1.6496,-1.6493,-1.6476,-1.6456,-1.6446,-1.6443,-1.6429,-1.6434,-1.6436,-1.6437,-1.6441,-1.6384,-1.6441,-1.6441,-1.644,-1.644,-1.644,0,-1.6649,-1.6636,-1.6632,-1.6617,-1.6614,-1.6592,-1.6578,-1.6576,-1.6575,-1.6561,-1.6554,-1.6549,-1.6542,-1.6519,-1.651,-1.6512,-1.65,-1.651,-1.6509,-1.6506,-1.6455,-1.6452,-1.652,-1.652,-1.652,-1.652,-1.652,-1.652,-1.6681,-1.6688,-1.6673,-1.6673,-1.666,-1.6658,-1.6652,-1.6643,-1.6632,-1.6627,-1.6621,-1.6607,-1.6589,-1.6578,-1.6571,-1.6565,-1.6562,-1.6576,-1.6566,-1.6518,-1.651,-1.6503,-1.65,-1.6576,-1.6576,-1.6617,-1.6617,-1.6617]},{"header":{"parameterUnit":"m.s-1","parameterCategory":1,"la1":30.2991,"la2":30.254,"lo1":-89.0895,"lo2":-89.0444,"dy":0.0017,"dx":0.0017,"nx":28,"ny":28,"refTime":"2024-02-26T03:00:00:Z","depth":0,"parameterNumber":3,"parameterNumberName":"V-component_of_WINDS"},"data":[0,0,0,0,0,0,0,0,0,0,0,0,0,0,0,0,0,0,0,0,0,0,0,0,0,0,0,0,0,0,0,0,0,0,0,0,0,0,0,0,0,0,0,0,0,0,0,0,0,0,0,0,0,0,0,0,0,0,1.0866,1.0866,0,1.0861,1.0861,1.086,1.0813,1.0811,1.081,1.0809,1.0806,1.0807,1.0808,0,0,0,0,0,0,0,0,0,0,0,0,0,1.0837,1.0838,1.0866,1.0866,1.0866,1.0861,1.0861,1.086,1.0813,1.0811,1.081,1.0808,1.0805,1.0807,1.0808,0,0,0,0,0,0,0,0,0,0,0,0,0,1.0842,1.0838,1.0866,1.0841,1.0839,1.0861,1.0861,1.086,1.0813,1.0811,1.0809,1.0808,1.0805,1.0807,1.0808,1.0854,0,0,1.0813,1.0813,0,0,0,0,0,0,0,0,1.0842,1.0844,1.0845,1.0843,1.084,1.0835,1.0849,1.0858,1.0813,1.0823,1.0809,1.0807,1.0817,1.0818,1.0821,1.0854,1.0853,1.0813,1.0814,1.0815,1.0815,0,0,0,0,0,0,0,1.0842,1.0844,1.0864,1.0845,1.0842,1.0831,1.083,1.0851,1.083,1.0822,1.0818,1.0818,1.0816,1.0819,1.082,1.0853,1.0813,1.0814,1.0815,1.0816,1.0925,1.0927,0,0,0,0,0,0,1.0845,1.0843,1.0864,1.0864,1.0837,1.0833,1.0832,1.0839,1.083,1.0827,1.082,1.0816,1.0818,1.0819,1.082,1.0874,1.0815,1.0816,1.0817,1.0923,1.0926,1.0928,0,0,0,0,0,0,1.0844,1.0847,1.0864,1.0853,1.0854,1.0836,1.0844,1.084,1.0843,1.0828,1.0825,1.0827,1.0816,1.0818,1.0846,1.0873,1.0817,1.0818,1.0921,1.0924,1.0927,1.0982,0,0,0,0,0,0,1.0843,1.0847,1.0863,1.0853,1.0855,1.089,1.0845,1.0841,1.0846,1.0841,1.0834,1.0832,1.0815,1.0844,1.0847,1.0874,1.0819,1.0918,1.0922,1.0926,1.0978,1.0987,1.0994,0,0,0,0,0,1.0843,1.0879,1.0864,1.0867,1.0875,1.0891,1.0892,1.0872,1.0848,1.0865,1.0856,1.0832,1.0869,1.0847,1.0851,1.0879,1.0917,1.0921,1.0925,1.0974,1.0985,1.0994,0,0,0,0,0,0,1.0894,1.0878,1.0861,1.0895,1.0895,1.0883,1.0904,1.0883,1.089,1.0885,1.086,1.0859,1.0892,1.0888,1.0863,1.0923,1.0889,1.0894,1.0925,1.0935,1.0943,1.0944,1.0821,0,0,0,0,0,1.0909,1.0923,1.0908,1.094,1.094,1.0922,1.0929,1.0913,1.0912,1.0912,1.0904,1.0905,1.0917,1.0925,1.0935,1.0977,1.0975,1.0998,1.1006,1.1013,1.1018,1.1041,1.1052,1.0942,1.0942,1.0942,0,0,1.0941,1.0933,1.0944,1.095,1.0948,1.0964,1.0923,1.0941,1.0953,1.0915,1.0941,1.0936,1.0935,1.097,1.0985,1.0968,1.1048,1.1018,1.1024,1.1026,1.1047,1.1057,1.1067,1.0945,1.0945,1.0944,0,0,1.1007,1.1002,1.1029,1.1028,1.1025,1.1012,1.1019,1.101,1.1005,1.1031,1.1003,1.1017,1.1038,1.1039,1.1043,1.111,1.1089,1.1114,1.1157,1.118,1.1189,1.1197,1.1222,1.1232,1.1119,1.1119,1.1119,0,1.1047,1.1069,1.1045,1.1066,1.107,1.1036,1.1063,1.1063,1.1064,1.1069,1.1049,1.1075,1.1072,1.1108,1.1125,1.1128,1.1136,1.1115,1.1189,1.1197,1.1204,1.1228,1.1238,1.1123,1.1122,1.1122,1.1122,0,1.1119,1.1135,1.1157,1.1159,1.1165,1.1189,1.117,1.118,1.1164,1.1154,1.1182,1.1177,1.1186,1.1193,1.1178,1.1228,1.1217,1.1194,1.1159,1.1218,1.124,1.1249,1.1127,1.1126,1.1125,1.1124,0,0,1.1218,1.1206,1.1215,1.1216,1.1211,1.1223,1.1246,1.1255,1.1264,1.1266,1.1286,1.1305,1.1284,1.1287,1.1272,1.1291,1.1348,1.1266,1.1265,1.1283,1.1404,1.1423,1.1434,1.1333,1.1334,1.1336,1.1405,0,1.1283,1.1321,1.1301,1.1342,1.1358,1.1325,1.1346,1.1345,1.1337,1.135,1.134,1.1355,1.1325,1.1327,1.1345,1.1337,1.1372,1.1331,1.1353,1.1354,1.1355,1.1445,1.1465,1.1531,1.1413,1.1415,1.1416,0,1.1364,1.137,1.1412,1.1405,1.1411,1.143,1.1437,1.1448,1.1448,1.144,1.1445,1.1425,1.1448,1.1413,1.1446,1.1419,1.1426,1.1424,1.1426,1.1428,1.1389,1.1452,1.1551,1.1561,1.1429,1.1428,1.1427,0,1.1434,1.1452,1.148,1.1482,1.1474,1.1488,1.1485,1.1483,1.149,1.1496,1.1501,1.151,1.1515,1.1523,1.1506,1.1482,1.1542,1.1505,1.1538,1.1539,1.1554,1.1553,1.1657,1.1556,1.1556,1.1555,1.1555,0,1.151,1.1538,1.1512,1.1529,1.156,1.1537,1.1568,1.1562,1.1561,1.1577,1.155,1.1566,1.1543,1.1557,1.1544,1.1575,1.1577,1.1573,1.1569,1.1576,1.1577,1.1582,1.1577,1.1558,1.1557,1.1557,1.1556,0,1.1594,1.1577,1.1606,1.1596,1.1594,1.1618,1.161,1.1626,1.1616,1.1638,1.1642,1.1626,1.1642,1.1626,1.164,1.1632,1.1673,1.1662,1.1673,1.1671,1.1705,1.1703,1.1817,1.1831,1.172,1.1721,1.1722,0,1.1644,1.1665,1.1657,1.1666,1.1665,1.168,1.1687,1.1665,1.1674,1.1675,1.1692,1.1705,1.1715,1.1742,1.1733,1.1744,1.1735,1.1774,1.1736,1.1743,1.1737,1.1737,1.174,1.1782,1.1783,1.1784,1.1785,0,1.1736,1.1727,1.1737,1.1745,1.1754,1.176,1.1763,1.1773,1.175,1.1761,1.1777,1.1785,1.18,1.1814,1.1823,1.1821,1.1801,1.1797,1.1805,1.1813,1.182,1.1819,1.1696,1.1794,1.1794,1.1793,1.1792,1.1792,1.1805,1.1823,1.1821,1.1834,1.1834,1.1838,1.1854,1.1845,1.1858,1.1868,1.1854,1.1874,1.1874,1.1884,1.1885,1.1901,1.1885,1.1897,1.19,1.1904,1.191,1.1816,1.1903,1.1902,1.1902,1.1902,1.1902,0,1.1897,1.1894,1.1906,1.1912,1.1923,1.1901,1.1904,1.1915,1.1932,1.1934,1.1944,1.1963,1.1977,1.1968,1.1981,1.1995,1.1986,1.2,1.1999,1.2,1.1923,1.1915,1.2007,1.2007,1.2007,1.2007,1.2007,1.2007,1.1946,1.1975,1.1966,1.1995,1.1992,1.2011,1.2015,1.2019,1.202,1.2042,1.2054,1.2048,1.2046,1.2058,1.2071,1.2068,1.2074,1.2092,1.2086,1.2015,1.2005,1.1995,1.1987,1.2093,1.2093,1.2161,1.2162,1.2162]}]]